When you browse on this site, cookies collect data to enhance your experience and personalize the content and advertising you see.
Visit our Privacy Policy to learn more. By continuing to use the site, you agree to this use of cookies and data.
  • In Schweiz
  • Länderverzeichnis
  • Für 7 Tage
  • Wassertemperatur
  • Satellitenkarten
  • Wetterkarte
  • Widgets
  • user-avatar
    Anmelden

    Stündliche Wetter Dangriga

    Heute, 16 Juli, Dienstag

    Zeit Temperatur Niederschläge Wind Luftdruck Luftfeuchtigkeit
    00:00 +27°C° 0 mm 5 m/S 760 mmHg 98%
    01:00 +27°C° 0.2 mm 5 m/S 759 mmHg 98%
    02:00 +27°C° 0.2 mm 5 m/S 759 mmHg 98%
    03:00 +27°C° 0.2 mm 5 m/S 758 mmHg 98%
    04:00 +27°C° 0.1 mm 6 m/S 759 mmHg 98%
    05:00 +27°C° 0.1 mm 6 m/S 759 mmHg 98%
    06:00 +27°C° 0.1 mm 6 m/S 759 mmHg 98%
    07:00 +28°C° 0 mm 6 m/S 760 mmHg 93%
    08:00 +29°C° 0 mm 6 m/S 760 mmHg 89%
    09:00 +30°C° 0 mm 6 m/S 760 mmHg 84%
    10:00 +33°C° 0 mm 6 m/S 760 mmHg 75%
    11:00 +34°C° 0 mm 6 m/S 760 mmHg 65%
    12:00 +35°C° 0 mm 6 m/S 760 mmHg 56%
    13:00 +35°C° 0 mm 6 m/S 760 mmHg 57%
    14:00 +34°C° 0 mm 6 m/S 759 mmHg 58%
    15:00 +34°C° 0 mm 6 m/S 759 mmHg 59%
    16:00 +33°C° 0 mm 6 m/S 759 mmHg 68%
    17:00 +32°C° 0 mm 5 m/S 759 mmHg 76%
    18:00 +29°C° 0 mm 5 m/S 759 mmHg 85%
    19:00 +29°C° 0.1 mm 5 m/S 759 mmHg 89%
    20:00 +28°C° 0.1 mm 5 m/S 760 mmHg 94%
    21:00 +27°C° 0.1 mm 5 m/S 760 mmHg 98%
    22:00 +27°C° 0.2 mm 5 m/S 760 mmHg 98%
    23:00 +27°C° 0.2 mm 5 m/S 760 mmHg 98%

    Morgen, 17 Juli, Mittwoch

    Zeit Temperatur Niederschläge Wind Luftdruck Luftfeuchtigkeit
    00:00 +27°C° 0.2 mm 5 m/S 760 mmHg 99%
    01:00 +27°C° 0.1 mm 5 m/S 760 mmHg 99%
    02:00 +26°C° 0.1 mm 5 m/S 759 mmHg 99%
    03:00 +26°C° 0.1 mm 5 m/S 759 mmHg 99%
    04:00 +26°C° 0.2 mm 5 m/S 759 mmHg 99%
    05:00 +26°C° 0.2 mm 5 m/S 759 mmHg 99%
    06:00 +26°C° 0.2 mm 5 m/S 760 mmHg 99%
    07:00 +27°C° 0.7 mm 6 m/S 760 mmHg 97%
    08:00 +28°C° 0.7 mm 6 m/S 760 mmHg 95%
    09:00 +29°C° 0.7 mm 6 m/S 761 mmHg 93%
    10:00 +29°C° 2 mm 6 m/S 761 mmHg 94%
    11:00 +29°C° 2 mm 6 m/S 761 mmHg 94%
    12:00 +29°C° 2 mm 7 m/S 761 mmHg 95%
    13:00 +29°C° 1.5 mm 6 m/S 760 mmHg 95%
    14:00 +29°C° 1.5 mm 6 m/S 760 mmHg 96%
    15:00 +28°C° 1.5 mm 6 m/S 759 mmHg 96%
    16:00 +28°C° 1.4 mm 6 m/S 759 mmHg 97%
    17:00 +27°C° 1.4 mm 6 m/S 759 mmHg 97%
    18:00 +27°C° 1.4 mm 7 m/S 759 mmHg 97%
    19:00 +27°C° 1.3 mm 7 m/S 760 mmHg 97%
    20:00 +27°C° 1.3 mm 7 m/S 760 mmHg 98%
    21:00 +26°C° 1.3 mm 7 m/S 760 mmHg 98%
    22:00 +26°C° 0.6 mm 7 m/S 760 mmHg 98%
    23:00 +26°C° 0.6 mm 7 m/S 760 mmHg 98%

    übermorgen, 18 Juli, Donnerstag

    Zeit Temperatur Niederschläge Wind Luftdruck Luftfeuchtigkeit
    00:00 +27°C° 0.6 mm 7 m/S 760 mmHg 98%
    01:00 +26°C° 0.7 mm 7 m/S 759 mmHg 98%
    02:00 +26°C° 0.7 mm 7 m/S 759 mmHg 98%
    03:00 +26°C° 0.7 mm 7 m/S 758 mmHg 99%
    04:00 +26°C° 0.7 mm 7 m/S 759 mmHg 99%
    05:00 +26°C° 0.7 mm 7 m/S 759 mmHg 99%
    06:00 +26°C° 0.7 mm 7 m/S 759 mmHg 99%
    07:00 +27°C° 0.2 mm 7 m/S 760 mmHg 97%
    08:00 +28°C° 0.2 mm 7 m/S 760 mmHg 96%
    09:00 +29°C° 0.2 mm 7 m/S 761 mmHg 94%
    10:00 +30°C° 0.1 mm 7 m/S 761 mmHg 83%
    11:00 +33°C° 0.1 mm 7 m/S 760 mmHg 72%
    12:00 +34°C° 0.1 mm 7 m/S 760 mmHg 61%
    13:00 +34°C° 0 mm 7 m/S 760 mmHg 61%
    14:00 +34°C° 0 mm 7 m/S 759 mmHg 60%
    15:00 +33°C° 0 mm 6 m/S 759 mmHg 60%
    16:00 +32°C° 0 mm 6 m/S 759 mmHg 68%
    17:00 +30°C° 0 mm 6 m/S 759 mmHg 75%
    18:00 +28°C° 0 mm 5 m/S 759 mmHg 83%
    19:00 +27°C° 0 mm 5 m/S 759 mmHg 87%
    20:00 +26°C° 0 mm 5 m/S 760 mmHg 91%
    21:00 +26°C° 0 mm 5 m/S 760 mmHg 96%
    22:00 +26°C° 0 mm 5 m/S 760 mmHg 96%
    23:00 +26°C° 0 mm 5 m/S 760 mmHg 96%

    19 Juli, Freitag

    Zeit Temperatur Niederschläge Wind Luftdruck Luftfeuchtigkeit
    00:00 +26°C° 0 mm 6 m/S 760 mmHg 97%
    01:00 +26°C° 0.1 mm 5 m/S 759 mmHg 97%
    02:00 +26°C° 0.1 mm 5 m/S 759 mmHg 98%
    03:00 +26°C° 0.1 mm 5 m/S 759 mmHg 98%
    04:00 +26°C° 0 mm 5 m/S 759 mmHg 98%
    05:00 +26°C° 0 mm 5 m/S 759 mmHg 98%
    06:00 +26°C° 0 mm 5 m/S 759 mmHg 98%
    07:00 +27°C° 0 mm 5 m/S 760 mmHg 90%
    08:00 +29°C° 0 mm 5 m/S 760 mmHg 82%
    09:00 +30°C° 0 mm 5 m/S 761 mmHg 74%
    10:00 +32°C° 0.3 mm 5 m/S 761 mmHg 73%
    11:00 +32°C° 0.3 mm 4 m/S 760 mmHg 73%
    12:00 +32°C° 0.3 mm 4 m/S 760 mmHg 72%
    13:00 +32°C° 0.5 mm 4 m/S 760 mmHg 74%
    14:00 +32°C° 0.5 mm 4 m/S 759 mmHg 75%
    15:00 +30°C° 0.5 mm 4 m/S 759 mmHg 76%
    16:00 +30°C° 0.1 mm 4 m/S 759 mmHg 80%
    17:00 +29°C° 0.1 mm 4 m/S 759 mmHg 83%
    18:00 +28°C° 0.1 mm 4 m/S 759 mmHg 87%
    19:00 +27°C° 0.1 mm 4 m/S 759 mmHg 91%
    20:00 +27°C° 0.1 mm 4 m/S 760 mmHg 94%
    21:00 +26°C° 0.1 mm 4 m/S 760 mmHg 98%
    22:00 +26°C° 0.4 mm 4 m/S 760 mmHg 98%
    23:00 +26°C° 0.4 mm 4 m/S 760 mmHg 98%

    20 Juli, Samstag

    Zeit Temperatur Niederschläge Wind Luftdruck Luftfeuchtigkeit
    00:00 +26°C° 0.4 mm 4 m/S 759 mmHg 98%
    01:00 +26°C° 0.7 mm 4 m/S 759 mmHg 98%
    02:00 +26°C° 0.7 mm 3 m/S 759 mmHg 98%
    03:00 +26°C° 0.7 mm 3 m/S 758 mmHg 98%
    04:00 +26°C° 0.4 mm 3 m/S 758 mmHg 98%
    05:00 +26°C° 0.4 mm 3 m/S 759 mmHg 98%
    06:00 +26°C° 0.4 mm 3 m/S 759 mmHg 98%
    07:00 +27°C° 1.5 mm 3 m/S 759 mmHg 94%
    08:00 +29°C° 1.5 mm 3 m/S 759 mmHg 89%
    09:00 +30°C° 1.5 mm 4 m/S 760 mmHg 85%
    10:00 +30°C° 1.7 mm 4 m/S 760 mmHg 83%
    11:00 +32°C° 1.7 mm 5 m/S 759 mmHg 80%
    12:00 +33°C° 1.7 mm 5 m/S 759 mmHg 78%
    13:00 +32°C° 1.5 mm 5 m/S 759 mmHg 79%
    14:00 +30°C° 1.5 mm 5 m/S 758 mmHg 81%
    15:00 +30°C° 1.5 mm 5 m/S 758 mmHg 83%
    16:00 +29°C° 0.2 mm 5 m/S 758 mmHg 87%
    17:00 +28°C° 0.2 mm 5 m/S 758 mmHg 92%
    18:00 +28°C° 0.2 mm 5 m/S 758 mmHg 96%
    19:00 +28°C° 0.4 mm 5 m/S 758 mmHg 97%
    20:00 +27°C° 0.4 mm 5 m/S 758 mmHg 98%
    21:00 +27°C° 0.4 mm 5 m/S 759 mmHg 98%
    22:00 +27°C° 0.8 mm 5 m/S 759 mmHg 98%
    23:00 +27°C° 0.8 mm 5 m/S 759 mmHg 99%

    21 Juli, Sonntag

    Zeit Temperatur Niederschläge Wind Luftdruck Luftfeuchtigkeit
    00:00 +27°C° 0.8 mm 5 m/S 758 mmHg 99%
    01:00 +27°C° 1.6 mm 5 m/S 758 mmHg 99%
    02:00 +27°C° 1.6 mm 5 m/S 758 mmHg 98%
    03:00 +26°C° 1.6 mm 5 m/S 757 mmHg 98%
    04:00 +26°C° 1.1 mm 5 m/S 758 mmHg 98%
    05:00 +27°C° 1.1 mm 5 m/S 758 mmHg 98%
    06:00 +27°C° 1.1 mm 5 m/S 758 mmHg 98%
    07:00 +28°C° 1.1 mm 5 m/S 759 mmHg 96%
    08:00 +28°C° 1.1 mm 5 m/S 759 mmHg 94%
    09:00 +29°C° 1.1 mm 5 m/S 759 mmHg 92%
    10:00 +30°C° 0.8 mm 5 m/S 759 mmHg 89%
    11:00 +30°C° 0.8 mm 5 m/S 759 mmHg 86%
    12:00 +32°C° 0.8 mm 5 m/S 759 mmHg 83%
    13:00 +32°C° 0.8 mm 5 m/S 758 mmHg 82%
    14:00 +32°C° 0.8 mm 5 m/S 758 mmHg 80%
    15:00 +32°C° 0.8 mm 5 m/S 757 mmHg 79%
    16:00 +30°C° 0.3 mm 5 m/S 757 mmHg 84%
    17:00 +29°C° 0.3 mm 5 m/S 758 mmHg 89%
    18:00 +28°C° 0.3 mm 5 m/S 758 mmHg 95%
    19:00 +28°C° 0.1 mm 5 m/S 758 mmHg 96%
    20:00 +27°C° 0.1 mm 5 m/S 758 mmHg 97%
    21:00 +27°C° 0.1 mm 5 m/S 759 mmHg 99%
    22:00 +27°C° 0.1 mm 5 m/S 759 mmHg 99%
    23:00 +27°C° 0.1 mm 5 m/S 759 mmHg 99%
    Mehr zeigen